Fremont, MI

9:25 PM EDT on October 16, 2019 (GMT -0400)
Fremont

Weather History for KFFX - August, 2019

Change the Weather History Date:

Thursday, August 8, 2019

  Actual Average (KMKG) Record (KMKG)
Temperature  
Mean Temperature 66 °F -  
Max Temperature 76 °F 79 °F 90 °F (1941)
Min Temperature 57 °F 60 °F 44 °F (1989)
Cooling Degree Days 2    
Growing Degree Days 16 (Base 50)    
Moisture  
Dew Point 59 °F    
Average Humidity 73    
Maximum Humidity 100    
Minimum Humidity 41    
Precipitation  
Precipitation 0.00 in - - ()
Sea Level Pressure  
Sea Level Pressure 29.80 in    
Wind  
Wind Speed 6 mph (WNW)    
Max Wind Speed 15 mph    
Max Gust Speed 22 mph    
Visibility 10 miles    
Events Rain    
Averages and records for this station are not official NWS values.
T = Trace of Precipitation, MM = Missing Value Source: NWS Daily Summary

Daily Weather History Graph

Daily Weather History Graph

Search for Another Location

Airport or City:

Astronomy

Aug. 08, 2019 Rise Set
Actual Time 6:41 AM EDT 8:57 PM EDT
Civil Twilight 6:09 AM EDT 9:29 PM EDT
Nautical Twilight 5:29 AM EDT 10:08 PM EDT
Astronomical Twilight 4:46 AM EDT 10:51 PM EDT
Moon 3:33 PM EDT (8/8) 1:03 AM EDT (8/8)
Length of Visible Light 15h 19m
Length of Day
14h 16m
First Quarter, 60% of the Moon is Illuminated
Aug 8
First Quarter
Aug 15
Full
Aug 23
Last Quarter
Aug 30
New
Sep 5
First Quarter

Hourly Weather History & Observations

Time (EDT) Temp. Dew Point Humidity Pressure Visibility Wind Dir Wind Speed Gust Speed Precip Events Conditions
12:19 AM 64.4 °F 64.4 °F 100% 29.78 in 7.0 mi Calm Calm - N/A Rain Rain
12:37 AM 64.4 °F 64.4 °F 100% 29.77 in 4.0 mi Calm Calm - N/A Rain Heavy Rain
12:55 AM 64.4 °F 64.4 °F 100% 29.77 in 7.0 mi SSW 5.8 mph - N/A Rain Rain
1:15 AM 64.0 °F 64.0 °F 100% 29.74 in 7.0 mi SSE 9.2 mph - N/A Rain Rain
1:35 AM 64.0 °F 64.0 °F 100% 29.73 in 10.0 mi SSE 5.8 mph - N/A Rain Rain
1:58 AM 63.9 °F 63.9 °F 100% 29.74 in 10.0 mi Calm Calm - N/A   Light Drizzle
2:16 AM 63.7 °F 63.7 °F 100% 29.73 in 10.0 mi SW 3.5 mph - N/A   Scattered Clouds
2:35 AM 63.5 °F 63.5 °F 100% 29.74 in 10.0 mi West 3.5 mph - N/A   Mostly Cloudy
2:55 AM 63.5 °F 63.5 °F 100% 29.75 in 10.0 mi WNW 8.1 mph - N/A   Mostly Cloudy
3:19 AM 63.9 °F 63.9 °F 100% 29.75 in 10.0 mi West 4.6 mph - N/A   Overcast
3:37 AM 64.4 °F 64.4 °F 100% 29.74 in 10.0 mi West 4.6 mph - N/A   Overcast
3:56 AM 64.6 °F 64.6 °F 100% 29.74 in 10.0 mi SW 5.8 mph - N/A   Overcast
4:15 AM 64.9 °F 64.9 °F 100% 29.73 in 10.0 mi SW 6.9 mph - N/A   Overcast
4:35 AM 65.1 °F 65.1 °F 100% 29.74 in 10.0 mi SW 8.1 mph - N/A   Overcast
4:58 AM 65.3 °F 65.3 °F 100% 29.74 in 10.0 mi WSW 6.9 mph - N/A   Overcast
5:16 AM 65.1 °F 65.1 °F 100% 29.73 in 10.0 mi SW 6.9 mph - N/A   Mostly Cloudy
5:35 AM 65.3 °F 65.3 °F 100% 29.73 in 10.0 mi WSW 5.8 mph - N/A   Mostly Cloudy
5:36 AM 65.3 °F 65.3 °F 100% 29.73 in 10.0 mi WSW 5.8 mph - N/A   Mostly Cloudy
5:55 AM 65.7 °F 65.7 °F 100% 29.73 in 10.0 mi West 4.6 mph - N/A   Overcast
6:19 AM 66.2 °F 66.2 °F 100% 29.73 in 10.0 mi West 6.9 mph - N/A   Overcast
6:37 AM 66.4 °F 66.4 °F 100% 29.73 in 10.0 mi West 5.8 mph - N/A   Overcast
6:55 AM 66.2 °F 66.2 °F 100% 29.74 in 10.0 mi West 5.8 mph - N/A   Overcast
6:56 AM 66.4 °F 66.4 °F 100% 29.74 in 10.0 mi West 5.8 mph - N/A   Overcast
7:15 AM 66.2 °F 66.2 °F 100% 29.74 in 10.0 mi West 6.9 mph - N/A   Overcast
7:35 AM 66.6 °F 66.6 °F 100% 29.75 in 10.0 mi WNW 5.8 mph - N/A   Overcast
7:58 AM 67.1 °F 67.1 °F 100% 29.75 in 10.0 mi WNW 8.1 mph - N/A   Overcast
8:16 AM 67.3 °F 67.3 °F 100% 29.75 in 10.0 mi WNW 6.9 mph - N/A   Overcast
8:35 AM 68.4 °F 68.4 °F 100% 29.76 in 10.0 mi WNW 8.1 mph - N/A   Overcast
8:55 AM 68.2 °F 67.6 °F 98% 29.77 in 10.0 mi WNW 9.2 mph - N/A   Mostly Cloudy
8:56 AM 68.4 °F 67.6 °F 98% 29.77 in 10.0 mi WNW 8.1 mph - N/A   Mostly Cloudy
9:19 AM 68.9 °F 66.6 °F 92% 29.78 in 10.0 mi NW 9.2 mph - N/A   Mostly Cloudy
9:37 AM 69.6 °F 64.4 °F 83% 29.78 in 10.0 mi WNW 10.4 mph 16.1 mph N/A   Mostly Cloudy
9:55 AM 70.3 °F 64.0 °F 80% 29.78 in 10.0 mi NW 8.1 mph - N/A   Mostly Cloudy
10:15 AM 71.4 °F 61.5 °F 71% 29.78 in 10.0 mi NW 11.5 mph - N/A   Scattered Clouds
10:35 AM 71.6 °F 59.9 °F 66% 29.79 in 10.0 mi NNW 12.7 mph - N/A   Clear
10:39 AM 71.6 °F 59.9 °F 66% 29.79 in 10.0 mi NW 9.2 mph - N/A   Clear
10:58 AM 72.9 °F 59.9 °F 64% 29.80 in 10.0 mi NW 8.1 mph - N/A   Scattered Clouds
11:16 AM 73.2 °F 60.4 °F 64% 29.80 in 10.0 mi West 9.2 mph - N/A   Mostly Cloudy
11:35 AM 74.8 °F 59.5 °F 59% 29.80 in 10.0 mi West 9.2 mph - N/A   Mostly Cloudy
11:36 AM 74.8 °F 59.7 °F 59% 29.80 in 10.0 mi WNW 9.2 mph - N/A   Mostly Cloudy
11:55 AM 75.2 °F 58.8 °F 57% 29.81 in 10.0 mi NW 10.4 mph 18.4 mph N/A   Mostly Cloudy
12:19 PM 75.7 °F 58.8 °F 56% 29.81 in 10.0 mi NW 15.0 mph 19.6 mph N/A   Mostly Cloudy
12:37 PM 75.2 °F 56.7 °F 52% 29.82 in 10.0 mi NW 13.8 mph 18.4 mph N/A   Mostly Cloudy
12:55 PM 76.1 °F 55.6 °F 49% 29.81 in 10.0 mi NW 9.2 mph 16.1 mph N/A   Mostly Cloudy
12:56 PM 76.1 °F 55.2 °F 48% 29.81 in 10.0 mi WNW 10.4 mph 16.1 mph N/A   Mostly Cloudy
1:15 PM 76.6 °F 53.8 °F 45% 29.81 in 10.0 mi WNW 13.8 mph - N/A   Scattered Clouds
1:16 PM 76.6 °F 54.1 °F 46% 29.81 in 10.0 mi WNW 13.8 mph - N/A   Scattered Clouds
1:35 PM 75.6 °F 54.9 °F 48% 29.81 in 10.0 mi NW 10.4 mph 17.3 mph N/A   Mostly Cloudy
1:58 PM 75.0 °F 53.2 °F 47% 29.82 in 10.0 mi NW 13.8 mph - N/A   Mostly Cloudy
2:16 PM 75.7 °F 52.3 °F 44% 29.83 in 10.0 mi NW 13.8 mph 18.4 mph N/A   Mostly Cloudy
2:35 PM 76.5 °F 51.6 °F 42% 29.83 in 10.0 mi NNW 13.8 mph 19.6 mph N/A   Mostly Cloudy
2:36 PM 76.5 °F 51.3 °F 41% 29.83 in 10.0 mi NW 12.7 mph 19.6 mph N/A   Mostly Cloudy
2:55 PM 75.9 °F 51.4 °F 42% 29.83 in 10.0 mi NW 12.7 mph 17.3 mph N/A   Mostly Cloudy
2:56 PM 75.9 °F 51.6 °F 43% 29.83 in 10.0 mi NW 15.0 mph 19.6 mph N/A   Mostly Cloudy
3:19 PM 75.7 °F 51.6 °F 43% 29.83 in 10.0 mi NNW 13.8 mph - N/A   Mostly Cloudy
3:37 PM 75.2 °F 52.0 °F 44% 29.83 in 10.0 mi NNW 12.7 mph 18.4 mph N/A   Mostly Cloudy
3:55 PM 75.6 °F 50.9 °F 42% 29.83 in 10.0 mi NW 11.5 mph 20.7 mph N/A   Scattered Clouds
4:15 PM 75.4 °F 51.4 °F 43% 29.84 in 10.0 mi WNW 15.0 mph 21.9 mph N/A   Scattered Clouds
4:16 PM 75.4 °F 51.4 °F 43% 29.84 in 10.0 mi WNW 13.8 mph 21.9 mph N/A   Scattered Clouds
4:35 PM 75.9 °F 52.9 °F 45% 29.83 in 10.0 mi NW 12.7 mph 17.3 mph N/A   Scattered Clouds
4:40 PM 75.7 °F 53.6 °F 46% 29.84 in 10.0 mi NW 13.8 mph 19.6 mph N/A   Scattered Clouds
4:58 PM 74.1 °F 53.1 °F 48% 29.84 in 10.0 mi NW 11.5 mph 18.4 mph N/A   Scattered Clouds
5:16 PM 75.0 °F 52.5 °F 45% 29.84 in 10.0 mi NW 12.7 mph - N/A   Scattered Clouds
5:35 PM 74.7 °F 53.2 °F 47% 29.84 in 10.0 mi NNW 11.5 mph 17.3 mph N/A   Scattered Clouds
5:55 PM 73.9 °F 52.3 °F 47% 29.84 in 10.0 mi NW 12.7 mph 19.6 mph N/A   Clear
6:19 PM 73.6 °F 50.9 °F 45% 29.84 in 10.0 mi NW 15.0 mph 19.6 mph N/A   Clear
6:37 PM 73.6 °F 50.7 °F 45% 29.84 in 10.0 mi NW 11.5 mph 17.3 mph N/A   Clear
6:55 PM 72.7 °F 50.7 °F 46% 29.84 in 10.0 mi NW 12.7 mph 19.6 mph N/A   Clear
6:56 PM 72.7 °F 50.5 °F 46% 29.84 in 10.0 mi NW 15.0 mph 19.6 mph N/A   Clear
7:15 PM 72.1 °F 51.6 °F 48% 29.84 in 10.0 mi NNW 9.2 mph - N/A   Clear
7:35 PM 71.1 °F 50.4 °F 48% 29.85 in 10.0 mi NNW 6.9 mph 16.1 mph N/A   Clear
7:58 PM 70.3 °F 50.0 °F 48% 29.85 in 10.0 mi NNW 6.9 mph - N/A   Clear
8:16 PM 68.7 °F 52.2 °F 55% 29.84 in 10.0 mi NNW 4.6 mph - N/A   Clear
8:35 PM 67.6 °F 53.6 °F 61% 29.84 in 10.0 mi Calm Calm - N/A   Clear
8:36 PM 67.5 °F 53.6 °F 61% 29.84 in 10.0 mi NW 3.5 mph - N/A   Clear
8:55 PM 66.0 °F 54.3 °F 66% 29.85 in 10.0 mi Calm Calm - N/A   Clear
9:19 PM 63.0 °F 54.5 °F 74% 29.85 in 10.0 mi Calm Calm - N/A   Clear
9:37 PM 62.6 °F 54.0 °F 73% 29.85 in 10.0 mi Calm Calm - N/A   Clear
9:55 PM 59.9 °F 55.9 °F 87% 29.85 in 10.0 mi Calm Calm - N/A   Clear
10:15 PM 59.9 °F 54.3 °F 82% 29.85 in 10.0 mi Calm Calm - N/A   Clear
10:16 PM 59.7 °F 54.5 °F 83% 29.85 in 10.0 mi Calm Calm - N/A   Clear
10:35 PM 59.0 °F 55.8 °F 89% 29.86 in 10.0 mi Calm Calm - N/A   Clear
10:40 PM 59.0 °F 55.8 °F 89% 29.86 in 10.0 mi Calm Calm - N/A   Clear
10:58 PM 58.6 °F 56.3 °F 92% 29.86 in 10.0 mi Calm Calm - N/A   Clear
11:16 PM 57.4 °F 56.8 °F 98% 29.86 in 10.0 mi Calm Calm - N/A   Clear
11:35 PM 57.4 °F 56.5 °F 97% 29.86 in 10.0 mi Calm Calm - N/A   Clear
11:55 PM 57.0 °F 56.3 °F 97% 29.86 in 10.0 mi Calm Calm - N/A   Clear